West Yellowstone, MT

10:39 PM MDT on March 22, 2017 (GMT -0600)
Yellowstone

Weather History for KWYS - January, 2013

Change the Weather History Date:

Sunday, January 6, 2013

  Actual Average Record
Temperature  
Mean Temperature 2 °F -  
Max Temperature 17 °F 21 °F 26 °F (2012)
Min Temperature -13 °F -2 °F -29 °F (2017)
Degree Days  
Heating Degree Days 63    
Moisture  
Dew Point -    
Average Humidity    
Maximum Humidity    
Minimum Humidity    
Precipitation  
Precipitation 0.00 in - - ()
Sea Level Pressure  
Sea Level Pressure 30.08 in    
Wind  
Wind Speed 0 mph (North)    
Max Wind Speed 6 mph    
Max Gust Speed -    
Visibility 9 miles    
Events Snow    
Averages and records for this station are not official NWS values.
T = Trace of Precipitation, MM = Missing Value Source: NWS Daily Summary

Daily Weather History Graph

Daily Weather History Graph

Search for Another Location

Airport or City:

Trip Planner

Search our weather history database for the weather conditions in past years. The results will help you decide how hot, cold, wet, or windy it might be!

Date:

Astronomy

Jan. 06, 2013 Rise Set
Actual Time 8:01 AM MST 5:00 PM MST
Civil Twilight 7:28 AM MST 5:33 PM MST
Nautical Twilight 6:51 AM MST 6:09 PM MST
Astronomical Twilight 6:16 AM MST 6:45 PM MST
Moon 2:14 AM MST (1/6) 12:34 PM MST (1/6)
Length of Visible Light 10h 04m
Length of Day
8h 58m
Waning Crescent, 32% of the Moon is Illuminated
Jan 6
Waning Crescent
Jan 11
New
Jan 18
First Quarter
Jan 26
Full
Feb 3
Last Quarter

Hourly Weather History & Observations

Time (MST) Temp. Windchill Dew Point Humidity Pressure Visibility Wind Dir Wind Speed Gust Speed Precip Events Conditions
12:05 AM -11.2 °F - - N/A% 30.22 in 10.0 mi Calm Calm - N/A   Clear
12:25 AM -11.2 °F - - N/A% 30.21 in 10.0 mi Calm Calm - N/A   Clear
12:45 AM -11.2 °F - - N/A% 30.20 in 10.0 mi Calm Calm - N/A   Clear
1:05 AM -11.2 °F - - N/A% 30.20 in 10.0 mi Calm Calm - N/A   Clear
1:25 AM -11.2 °F - - N/A% 30.19 in 10.0 mi Calm Calm - N/A   Clear
1:45 AM -11.2 °F - - N/A% 30.19 in 10.0 mi Calm Calm - N/A   Clear
2:05 AM -13.0 °F - - N/A% 30.18 in 10.0 mi Calm Calm - N/A   Clear
2:25 AM -13.0 °F - - N/A% 30.18 in 10.0 mi Calm Calm - N/A   Clear
2:45 AM -13.0 °F - - N/A% 30.18 in 10.0 mi Calm Calm - N/A   Clear
3:05 AM -13.0 °F - - N/A% 30.17 in 10.0 mi Calm Calm - N/A   Clear
3:25 AM -11.2 °F - - N/A% 30.17 in 10.0 mi Calm Calm - N/A   Clear
3:45 AM -11.2 °F - - N/A% 30.16 in 10.0 mi Calm Calm - N/A   Clear
4:05 AM -11.2 °F - - N/A% 30.16 in 10.0 mi Calm Calm - N/A   Clear
4:25 AM -11.2 °F - - N/A% 30.15 in 9.0 mi Calm Calm - N/A   Clear
5:05 AM -9.4 °F - - N/A% 30.14 in 10.0 mi Calm Calm - N/A   Clear
5:25 AM -7.6 °F - - N/A% 30.13 in 10.0 mi Calm Calm - N/A   Scattered Clouds
5:45 AM -7.6 °F - - N/A% 30.13 in 10.0 mi Calm Calm - N/A   Scattered Clouds
6:05 AM -7.6 °F - - N/A% 30.13 in 10.0 mi Calm Calm - N/A   Clear
6:25 AM -4.0 °F - - N/A% 30.12 in 10.0 mi Calm Calm - N/A   Scattered Clouds
6:45 AM -4.0 °F - - N/A% 30.13 in 10.0 mi Calm Calm - N/A   Partly Cloudy
7:05 AM -4.0 °F - - N/A% 30.12 in 10.0 mi Calm Calm - N/A   Partly Cloudy
7:25 AM -4.0 °F - - N/A% 30.12 in 10.0 mi Calm Calm - N/A   Mostly Cloudy
7:45 AM -2.2 °F -10.4 °F - N/A% 30.12 in 10.0 mi NW 3.5 mph - N/A   Overcast
8:05 AM -2.2 °F - - N/A% 30.11 in 10.0 mi Calm Calm - N/A   Overcast
8:25 AM -0.4 °F - - N/A% 30.10 in 10.0 mi Calm Calm - N/A   Overcast
8:45 AM -0.4 °F - - N/A% 30.11 in 10.0 mi Calm Calm - N/A   Overcast
9:05 AM -0.4 °F - - N/A% 30.10 in 10.0 mi Calm Calm - N/A   Overcast
9:25 AM 1.4 °F - - N/A% 30.11 in 10.0 mi Calm Calm - N/A   Overcast
9:45 AM 1.4 °F - - N/A% 30.10 in 10.0 mi Calm Calm - N/A   Overcast
10:05 AM 3.2 °F - - N/A% 30.10 in 10.0 mi Calm Calm - N/A   Scattered Clouds
10:25 AM 5.0 °F - - N/A% 30.10 in 10.0 mi Calm Calm - N/A   Mostly Cloudy
10:45 AM 6.8 °F - - N/A% 30.09 in 10.0 mi Calm Calm - N/A   Scattered Clouds
11:05 AM 6.8 °F - - N/A% 30.08 in 10.0 mi Calm Calm - N/A   Partly Cloudy
11:25 AM 8.6 °F - - N/A% 30.07 in 10.0 mi Calm Calm - N/A   Partly Cloudy
11:45 AM 8.6 °F - - N/A% 30.06 in 10.0 mi Calm Calm - N/A   Partly Cloudy
12:05 PM 10.4 °F - - N/A% 30.05 in 10.0 mi Calm Calm - N/A Snow Light Snow
12:25 PM 10.4 °F - - N/A% 30.04 in 2.0 mi Calm Calm - N/A Snow Light Snow
12:45 PM 12.2 °F - - N/A% 30.03 in 3.0 mi Calm Calm - N/A Snow Light Snow
1:05 PM 12.2 °F - - N/A% 30.02 in 1.5 mi Calm Calm - N/A Snow Light Snow
1:25 PM 14.0 °F 8.2 °F - N/A% 30.01 in 2.0 mi NE 3.5 mph - N/A Snow Light Snow
2:05 PM 15.8 °F 10.2 °F - N/A% 30.00 in 2.5 mi SW 3.5 mph - N/A Snow Light Snow
2:25 PM 15.8 °F - - N/A% 30.00 in 3.0 mi Calm Calm - N/A Snow Light Snow
2:45 PM 15.8 °F - - N/A% 30.00 in 5.0 mi Calm Calm - N/A Snow Light Snow
3:05 PM 15.8 °F - - N/A% 30.00 in 10.0 mi Calm Calm - N/A Snow Light Snow
3:25 PM 15.8 °F 10.2 °F - N/A% 30.00 in 7.0 mi NE 3.5 mph - N/A Snow Light Snow
3:45 PM 15.8 °F 8.6 °F - N/A% 30.00 in 10.0 mi NNE 4.6 mph - N/A   Mostly Cloudy
4:05 PM 17.6 °F - - N/A% 30.00 in 10.0 mi Calm Calm - N/A   Overcast
4:25 PM 17.6 °F - - N/A% 29.99 in 10.0 mi Calm Calm - N/A   Overcast
4:45 PM 17.6 °F 12.3 °F - N/A% 29.99 in 10.0 mi SW 3.5 mph - N/A   Overcast
5:05 PM 17.6 °F - - N/A% 29.99 in 10.0 mi Calm Calm - N/A   Overcast
5:25 PM 15.8 °F - - N/A% 30.00 in 10.0 mi Calm Calm - N/A   Overcast
5:45 PM 15.8 °F - - N/A% 30.00 in 10.0 mi Calm Calm - N/A   Overcast
6:05 PM 15.8 °F - - N/A% 30.00 in 10.0 mi Calm Calm - N/A   Overcast
6:25 PM 17.6 °F - - N/A% 30.00 in 10.0 mi Calm Calm - N/A   Overcast
6:45 PM 15.8 °F - - N/A% 30.00 in 10.0 mi Calm Calm - N/A   Overcast
7:05 PM 14.0 °F - - N/A% 30.00 in 10.0 mi Calm Calm - N/A   Mostly Cloudy
7:25 PM 14.0 °F 6.5 °F - N/A% 30.00 in 10.0 mi North 4.6 mph - N/A   Overcast
8:05 PM 14.0 °F - - N/A% 30.01 in 10.0 mi Calm Calm - N/A   Overcast
9:05 PM 10.4 °F 2.2 °F - N/A% 29.99 in 10.0 mi SW 4.6 mph - N/A   Overcast
9:25 PM 8.6 °F 2.0 °F - N/A% 30.01 in 10.0 mi NNE 3.5 mph - N/A   Mostly Cloudy
9:45 PM 6.8 °F -2.0 °F - N/A% 30.01 in 10.0 mi North 4.6 mph - N/A   Partly Cloudy
10:25 PM 5.0 °F -5.6 °F - N/A% 30.02 in 10.0 mi NE 5.8 mph - N/A   Overcast
10:45 PM 5.0 °F - - N/A% 30.02 in 10.0 mi Calm Calm - N/A   Mostly Cloudy
11:05 PM 5.0 °F - - N/A% 30.02 in 10.0 mi Calm Calm - N/A   Mostly Cloudy
11:25 PM 5.0 °F - - N/A% 30.02 in 10.0 mi Calm Calm - N/A   Scattered Clouds
11:45 PM 5.0 °F - - N/A% 30.03 in 10.0 mi Calm Calm - N/A   Clear